[[{"header":{"parameterUnit":"m.s-1","parameterCategory":1,"la1":30.2991,"la2":30.254,"lo1":-89.0895,"lo2":-89.0444,"dy":0.0017,"dx":0.0017,"nx":28,"ny":28,"refTime":"2024-02-05T03:00:00:Z","depth":0,"parameterNumber":2,"parameterNumberName":"U-component_of_WINDS"},"data":[0,0,0,0,0,0,0,0,0,0,0,0,0,0,0,0,0,0,0,0,0,0,0,0,0,0,0,0,0,0,0,0,0,0,0,0,0,0,0,0,0,0,0,0,0,0,0,0,0,0,0,0,0,0,0,0,0,0,1.6116,1.6117,0,1.6194,1.6194,1.6195,1.6182,1.6181,1.618,1.6178,1.6261,1.6264,1.6268,0,0,0,0,0,0,0,0,0,0,0,0,0,1.5964,1.5966,1.6116,1.6117,1.6118,1.6193,1.6194,1.6195,1.6183,1.6181,1.6179,1.6178,1.626,1.6264,1.6268,0,0,0,0,0,0,0,0,0,0,0,0,0,1.6034,1.5967,1.6116,1.6121,1.6122,1.6193,1.6194,1.6196,1.6183,1.6181,1.6179,1.6177,1.6258,1.6263,1.6269,1.6341,0,0,1.6284,1.6287,0,0,0,0,0,0,0,0,1.603,1.604,1.6119,1.6121,1.6122,1.6176,1.6171,1.6245,1.6183,1.616,1.6178,1.6176,1.6235,1.6242,1.6261,1.6345,1.6349,1.6285,1.6288,1.629,1.6292,0,0,0,0,0,0,0,1.6025,1.6037,1.6147,1.612,1.6122,1.6121,1.6129,1.6185,1.6208,1.6162,1.6161,1.617,1.6235,1.6256,1.6263,1.635,1.6285,1.6289,1.6293,1.6295,1.6502,1.6505,0,0,0,0,0,0,1.6018,1.6033,1.6144,1.6149,1.607,1.6125,1.6134,1.6161,1.6207,1.6212,1.6172,1.6169,1.6248,1.6256,1.6265,1.6357,1.629,1.6295,1.6298,1.65,1.6503,1.6506,0,0,0,0,0,0,1.6015,1.6029,1.6141,1.6091,1.6105,1.613,1.616,1.6163,1.6184,1.6215,1.6219,1.6188,1.6247,1.6258,1.6323,1.6359,1.6297,1.6302,1.6497,1.6501,1.6504,1.6537,0,0,0,0,0,0,1.6011,1.6027,1.6054,1.6091,1.6108,1.6196,1.6162,1.6166,1.6193,1.619,1.6231,1.6236,1.6246,1.6316,1.6328,1.6365,1.6306,1.6494,1.6499,1.6503,1.6533,1.6542,1.6549,0,0,0,0,0,1.6005,1.606,1.6055,1.6069,1.6141,1.6198,1.6208,1.6217,1.6195,1.6224,1.6244,1.6235,1.6353,1.6322,1.6337,1.6376,1.6492,1.6498,1.6503,1.653,1.654,1.6549,0,0,0,0,0,0,1.6026,1.6065,1.606,1.6128,1.616,1.6196,1.6231,1.6227,1.6266,1.6262,1.6273,1.6282,1.6349,1.6369,1.6334,1.645,1.642,1.6428,1.6435,1.6445,1.6453,1.6448,1.6311,0,0,0,0,0,1.6038,1.608,1.6112,1.6169,1.6186,1.6206,1.6231,1.6235,1.6269,1.6283,1.6308,1.6343,1.6388,1.6417,1.646,1.6536,1.6547,1.657,1.6578,1.6584,1.6592,1.6637,1.6649,1.6523,1.6523,1.6523,0,0,1.6065,1.6091,1.6117,1.6174,1.6199,1.6245,1.6217,1.6265,1.63,1.6291,1.6354,1.6374,1.6414,1.6485,1.6518,1.6504,1.6629,1.6591,1.6596,1.66,1.6644,1.6656,1.6667,1.6527,1.6526,1.6526,0,0,1.6136,1.6159,1.621,1.6237,1.6275,1.6289,1.6301,1.6339,1.6352,1.6415,1.6411,1.6453,1.6529,1.6559,1.6584,1.667,1.6665,1.6684,1.6726,1.677,1.678,1.6789,1.6823,1.6834,1.6691,1.6691,1.6692,0,1.6164,1.6231,1.6238,1.6288,1.6315,1.6308,1.6362,1.6388,1.6439,1.6459,1.6442,1.654,1.6566,1.6646,1.6668,1.6687,1.6704,1.668,1.6777,1.6786,1.6795,1.6827,1.684,1.6694,1.6693,1.6693,1.6693,0,1.6265,1.6312,1.6349,1.6399,1.643,1.6481,1.6499,1.653,1.6532,1.6548,1.6616,1.6647,1.6698,1.6717,1.6719,1.6799,1.6789,1.6774,1.6744,1.6809,1.684,1.6852,1.6697,1.6696,1.6695,1.6695,0,0,1.6351,1.6406,1.6419,1.6444,1.6487,1.6524,1.6577,1.6627,1.6655,1.6691,1.6738,1.6804,1.6792,1.6821,1.6827,1.6865,1.6936,1.6846,1.6847,1.6864,1.703,1.7042,1.7056,1.6932,1.6934,1.6936,1.7027,0,1.6429,1.6521,1.653,1.6614,1.6659,1.6655,1.6702,1.6735,1.6752,1.6795,1.6814,1.6862,1.6841,1.6859,1.6896,1.6919,1.6969,1.6912,1.6979,1.6981,1.6971,1.7072,1.7084,1.7169,1.7039,1.7041,1.7043,0,1.6531,1.6571,1.6659,1.67,1.6719,1.676,1.6809,1.6848,1.6887,1.6897,1.6931,1.6933,1.699,1.6957,1.7038,1.6999,1.7027,1.7043,1.7047,1.7055,1.7017,1.7086,1.7196,1.7209,1.7061,1.706,1.7058,0,1.6589,1.6665,1.6728,1.6748,1.6796,1.6826,1.6848,1.6885,1.6915,1.6957,1.6978,1.7026,1.7054,1.7092,1.7109,1.7082,1.7191,1.7158,1.7204,1.7204,1.7228,1.7227,1.7347,1.7242,1.7242,1.7241,1.7241,0,1.6676,1.6731,1.6755,1.6794,1.6857,1.6868,1.693,1.6951,1.6984,1.703,1.7029,1.7071,1.7089,1.7136,1.7148,1.7216,1.7228,1.724,1.7243,1.7242,1.7241,1.7261,1.7257,1.7245,1.7244,1.7243,1.7243,0,1.6752,1.677,1.6839,1.6879,1.6891,1.6936,1.6971,1.7011,1.7028,1.7085,1.71,1.7127,1.7182,1.7202,1.7268,1.7278,1.7357,1.7354,1.7344,1.7346,1.7392,1.7388,1.7532,1.7553,1.7431,1.7432,1.7433,0,1.6808,1.685,1.6895,1.6925,1.6948,1.6995,1.7027,1.704,1.7073,1.7123,1.7157,1.7212,1.7256,1.7345,1.7373,1.7425,1.7425,1.7472,1.7433,1.7431,1.7429,1.7428,1.7434,1.7479,1.7481,1.7482,1.7482,0,1.6906,1.6913,1.6957,1.7006,1.7043,1.7082,1.712,1.7145,1.7164,1.7202,1.7258,1.7293,1.7362,1.7417,1.7471,1.7496,1.7494,1.7494,1.7508,1.7508,1.7502,1.7509,1.7367,1.7491,1.749,1.749,1.7489,1.7489,1.6975,1.7014,1.7052,1.7103,1.7133,1.7169,1.7209,1.7232,1.7278,1.7335,1.7341,1.7402,1.7444,1.7516,1.7543,1.7593,1.7581,1.76,1.7606,1.7611,1.7616,1.7492,1.7603,1.7603,1.7602,1.7602,1.7602,0,1.7076,1.7101,1.7147,1.72,1.7241,1.7234,1.7276,1.7312,1.7365,1.7403,1.7448,1.7514,1.7569,1.7601,1.7657,1.7691,1.7692,1.7705,1.7704,1.7711,1.7622,1.7606,1.7704,1.7704,1.7704,1.7704,1.7704,1.7704,1.7133,1.7199,1.7212,1.7294,1.7319,1.7379,1.7404,1.7439,1.747,1.7544,1.7589,1.761,1.7647,1.7706,1.7757,1.7765,1.7787,1.7802,1.781,1.7727,1.7717,1.7707,1.7692,1.7806,1.7806,1.7895,1.7896,1.7896]},{"header":{"parameterUnit":"m.s-1","parameterCategory":1,"la1":30.2991,"la2":30.254,"lo1":-89.0895,"lo2":-89.0444,"dy":0.0017,"dx":0.0017,"nx":28,"ny":28,"refTime":"2024-02-05T03:00:00:Z","depth":0,"parameterNumber":3,"parameterNumberName":"V-component_of_WINDS"},"data":[0,0,0,0,0,0,0,0,0,0,0,0,0,0,0,0,0,0,0,0,0,0,0,0,0,0,0,0,0,0,0,0,0,0,0,0,0,0,0,0,0,0,0,0,0,0,0,0,0,0,0,0,0,0,0,0,0,0,-1.8934,-1.8933,0,-1.8848,-1.8847,-1.8846,-1.8889,-1.8891,-1.8893,-1.8895,-1.8803,-1.8799,-1.8794,0,0,0,0,0,0,0,0,0,0,0,0,0,-1.9133,-1.9129,-1.8934,-1.8933,-1.8932,-1.8848,-1.8847,-1.8846,-1.8888,-1.8891,-1.8894,-1.8896,-1.8805,-1.8799,-1.8794,0,0,0,0,0,0,0,0,0,0,0,0,0,-1.9047,-1.9128,-1.8934,-1.8943,-1.8943,-1.8848,-1.8847,-1.8845,-1.8888,-1.8891,-1.8895,-1.8898,-1.8807,-1.88,-1.8793,-1.8683,0,0,-1.8772,-1.8769,0,0,0,0,0,0,0,0,-1.9052,-1.9039,-1.8943,-1.8942,-1.8942,-1.8883,-1.8883,-1.8791,-1.8887,-1.8909,-1.8895,-1.8899,-1.8827,-1.8818,-1.8795,-1.8679,-1.8675,-1.8772,-1.8768,-1.8765,-1.8763,0,0,0,0,0,0,0,-1.9057,-1.9043,-1.89,-1.8941,-1.8941,-1.8951,-1.8942,-1.8866,-1.8849,-1.8907,-1.891,-1.8899,-1.8827,-1.8801,-1.8793,-1.8674,-1.8772,-1.8766,-1.8762,-1.8759,-1.8466,-1.8462,0,0,0,0,0,0,-1.9063,-1.9048,-1.8902,-1.8897,-1.9006,-1.8944,-1.8935,-1.8898,-1.8851,-1.8847,-1.8897,-1.8902,-1.8811,-1.8801,-1.879,-1.8659,-1.8765,-1.8758,-1.8754,-1.847,-1.8465,-1.8461,0,0,0,0,0,0,-1.9068,-1.905,-1.8906,-1.8973,-1.8956,-1.8937,-1.8896,-1.8895,-1.8869,-1.8843,-1.884,-1.8873,-1.8813,-1.8799,-1.871,-1.8657,-1.8755,-1.8749,-1.8474,-1.8468,-1.8463,-1.8396,0,0,0,0,0,0,-1.9073,-1.9051,-1.9009,-1.8972,-1.8952,-1.8828,-1.8892,-1.889,-1.8857,-1.8863,-1.882,-1.8816,-1.8815,-1.872,-1.8704,-1.8649,-1.8744,-1.8479,-1.8471,-1.8465,-1.8403,-1.8389,-1.8377,0,0,0,0,0,-1.908,-1.8993,-1.9007,-1.8989,-1.89,-1.8825,-1.8813,-1.8815,-1.8853,-1.8811,-1.8794,-1.8817,-1.8666,-1.8711,-1.8692,-1.8635,-1.8482,-1.8474,-1.8465,-1.8409,-1.8392,-1.8378,0,0,0,0,0,0,-1.9022,-1.8988,-1.9003,-1.8902,-1.8866,-1.8832,-1.8779,-1.8796,-1.8748,-1.8755,-1.8759,-1.8749,-1.8656,-1.8637,-1.8688,-1.8527,-1.858,-1.8567,-1.8543,-1.8527,-1.8514,-1.852,-1.8738,0,0,0,0,0,-1.8998,-1.8941,-1.8914,-1.8827,-1.8808,-1.8797,-1.8764,-1.8769,-1.8731,-1.8716,-1.8693,-1.8655,-1.8599,-1.8562,-1.8509,-1.8401,-1.8393,-1.8353,-1.834,-1.8329,-1.8318,-1.8262,-1.8244,-1.8434,-1.8434,-1.8434,0,0,-1.8946,-1.8921,-1.8884,-1.8814,-1.8787,-1.8728,-1.8783,-1.8717,-1.8673,-1.8706,-1.8621,-1.8603,-1.8561,-1.8463,-1.8418,-1.8443,-1.8264,-1.8319,-1.8311,-1.8305,-1.8251,-1.8233,-1.8217,-1.8428,-1.8429,-1.843,0,0,-1.8822,-1.8797,-1.8723,-1.8695,-1.8654,-1.8648,-1.863,-1.8594,-1.8584,-1.8499,-1.8523,-1.847,-1.8373,-1.8343,-1.8315,-1.8183,-1.8202,-1.8165,-1.8097,-1.8042,-1.8027,-1.8013,-1.7967,-1.795,-1.8155,-1.8154,-1.8154,0,-1.8763,-1.8675,-1.8681,-1.8615,-1.8584,-1.8613,-1.8537,-1.851,-1.8453,-1.8431,-1.8461,-1.8342,-1.8315,-1.8211,-1.8179,-1.8155,-1.8135,-1.817,-1.8029,-1.8015,-1.8003,-1.7959,-1.7941,-1.815,-1.8151,-1.8151,-1.8151,0,-1.8605,-1.8544,-1.8488,-1.8435,-1.8398,-1.8327,-1.8322,-1.8284,-1.8293,-1.8283,-1.8197,-1.8167,-1.811,-1.8085,-1.8092,-1.7982,-1.8,-1.8029,-1.8081,-1.798,-1.7939,-1.7922,-1.8144,-1.8146,-1.8147,-1.8148,0,0,-1.8439,-1.8393,-1.8372,-1.835,-1.8308,-1.8261,-1.8192,-1.8137,-1.8105,-1.8065,-1.8008,-1.7927,-1.7954,-1.7922,-1.7926,-1.7878,-1.7777,-1.7913,-1.7912,-1.7889,-1.7655,-1.7633,-1.7614,-1.779,-1.7787,-1.7784,-1.7659,0,-1.8312,-1.8193,-1.8198,-1.8086,-1.803,-1.8058,-1.7999,-1.7967,-1.7956,-1.7907,-1.7896,-1.7839,-1.7879,-1.786,-1.7814,-1.7799,-1.773,-1.7808,-1.7736,-1.7734,-1.7746,-1.7592,-1.7568,-1.7451,-1.7643,-1.764,-1.7638,0,-1.8147,-1.8105,-1.7988,-1.7958,-1.7935,-1.7881,-1.7832,-1.7785,-1.775,-1.7746,-1.7712,-1.7725,-1.7656,-1.7711,-1.7616,-1.7669,-1.764,-1.7629,-1.7624,-1.7617,-1.7679,-1.758,-1.7413,-1.7396,-1.7612,-1.7614,-1.7616,0,-1.8039,-1.7953,-1.7872,-1.7852,-1.7814,-1.7776,-1.7758,-1.7726,-1.7694,-1.7652,-1.7631,-1.758,-1.7552,-1.7513,-1.7512,-1.7552,-1.7416,-1.7471,-1.741,-1.741,-1.7379,-1.7381,-1.7205,-1.7361,-1.7361,-1.7362,-1.7362,0,-1.7897,-1.7824,-1.7823,-1.7774,-1.7694,-1.7701,-1.7621,-1.7607,-1.758,-1.7528,-1.7549,-1.7499,-1.7502,-1.7452,-1.745,-1.7372,-1.7359,-1.7354,-1.7354,-1.7352,-1.7353,-1.7332,-1.734,-1.7357,-1.7358,-1.7359,-1.736,0,-1.7761,-1.7758,-1.7672,-1.7644,-1.7636,-1.7578,-1.7554,-1.7507,-1.75,-1.7435,-1.742,-1.7408,-1.7351,-1.7347,-1.7279,-1.7279,-1.7184,-1.7193,-1.7196,-1.7198,-1.7138,-1.7144,-1.6942,-1.6917,-1.7089,-1.7088,-1.7086,0,-1.767,-1.7615,-1.7583,-1.7551,-1.7531,-1.7478,-1.7447,-1.7452,-1.7417,-1.7375,-1.7333,-1.7279,-1.7235,-1.7142,-1.7128,-1.7077,-1.7085,-1.7019,-1.7078,-1.7078,-1.7085,-1.7088,-1.7083,-1.7006,-1.7005,-1.7003,-1.7002,0,-1.7509,-1.7511,-1.7465,-1.7418,-1.738,-1.7343,-1.7309,-1.7281,-1.7283,-1.7243,-1.7186,-1.7152,-1.7086,-1.7031,-1.6982,-1.6964,-1.6983,-1.6984,-1.6967,-1.6963,-1.6968,-1.6965,-1.7165,-1.6988,-1.6989,-1.699,-1.6991,-1.6992,-1.7393,-1.7346,-1.7317,-1.7265,-1.7241,-1.7209,-1.7165,-1.7153,-1.7106,-1.7053,-1.7059,-1.6996,-1.6965,-1.6902,-1.688,-1.683,-1.6853,-1.6828,-1.6822,-1.6816,-1.681,-1.6976,-1.6821,-1.6822,-1.6822,-1.6822,-1.6823,0,-1.7233,-1.7217,-1.7169,-1.7122,-1.7082,-1.7106,-1.707,-1.7034,-1.6979,-1.6949,-1.6907,-1.6842,-1.679,-1.6772,-1.6722,-1.6686,-1.6694,-1.6673,-1.6675,-1.6671,-1.6793,-1.6812,-1.6668,-1.6668,-1.6668,-1.6668,-1.6668,-1.6668,-1.7145,-1.7069,-1.7068,-1.6979,-1.6963,-1.6903,-1.688,-1.6852,-1.6828,-1.6755,-1.6713,-1.6703,-1.6678,-1.6627,-1.6581,-1.6577,-1.6557,-1.6533,-1.6532,-1.6646,-1.6662,-1.6677,-1.6695,-1.6528,-1.6528,-1.6415,-1.6414,-1.6413]}]]